CAPE
0 0 0 0 0 0 0 0 0 0 0 0 18 0 1 230 422 199 175 412 398 445 533 489 510 489 537 606 519 520 604 674
0 0 0 0 0 0 0 0 0 0 0 0 0 0 153 430 262 398 689 718 653 567 525 610 559 655 687 632 479 190 659 930
0 0 0 0 0 0 0 0 0 0 0 50 31 36 172 456 319 606 741 1084 854 686 495 367 702 775 786 620 619 297 314 1027
0 0 0 0 0 0 0 0 0 0 0 0 221 130 305 241 392 678 580 690 681 717 832 587 756 927 959 860 904 736 322 380
0 0 0 0 0 0 0 0 0 0 0 0 227 335 288 471 735 584 260 311 633 768 994 1005 938 1047 1161 1088 985 975 918 748
0 0 0 0 0 0 0 0 0 0 0 0 592 662 760 965 899 734 346 362 493 760 957 1132 1174 1198 1297 1339 1329 1380 1005 513
0 0 0 0 0 0 0 0 0 0 0 0 460 922 1151 948 1122 973 583 510 506 677 916 1122 1248 1237 1232 1158 898 466 225 160
0 0 0 0 0 0 0 0 0 0 0 0 133 1249 1555 1155 1211 1114 791 692 757 973 1016 999 1129 1043 708 588 540 297 231 399
0 0 0 0 0 0 0 0 0 0 0 0 9 782 1315 1386 1189 1200 994 905 1114 960 1193 1121 854 679 918 1412 1303 838 1573 2516
0 0 0 0 0 0 0 0 0 0 0 0 0 65 1094 1446 1184 1344 1373 1356 1758 1398 1318 1423 1694 2105 2345 2365 2225 2403 2433 2223
0 0 0 0 0 0 0 0 0 0 0 0 145 628 991 1334 1547 1528 1503 1835 2157 1952 1842 1844 2033 2317 2311 2086 1898 1684 1345 913
0 0 0 0 0 0 0 0 0 0 0 0 284 138 391 927 1270 1867 2072 2021 2069 2022 1987 1995 2032 2177 2054 1804 1650 1409 812 345
0 0 0 0 0 0 0 0 0 0 0 0 24 348 684 856 1203 1606 1697 1838 1998 2169 2275 2090 1899 1800 1759 1491 1238 418 14 0
0 0 0 0 0 0 0 0 0 0 0 0 273 429 647 982 1207 1329 1587 1779 1927 1938 1827 1685 1448 1327 978 305 10 0 0 0
0 0 0 0 0 0 0 0 0 0 0 0 133 497 860 1061 1186 1465 1756 1470 1332 1363 973 505 168 43 1 2 0 0 0 0
80 10 0 0 0 0 0 3 0 25 67 186 383 705 1045 1247 1228 1201 1099 997 729 552 368 100 6 3 4 0 0 0 0 0
71 7 0 4 2 7 15 92 47 230 376 576 851 1033 1083 1140 1191 1013 747 538 388 274 194 112 1 1 0 0 0 0 22 2
65 0 3 11 0 8 28 51 167 211 294 661 681 654 875 804 734 642 521 266 225 139 18 2 7 10 0 0 0 0 0 0
10 0 0 0 0 9 48 155 288 352 496 231 461 507 582 454 377 116 138 67 6 1 7 0 0 9 0 5 0 0 0 0
CIN
0 0 0 0 0 0 0 0 0 0 0 0 -201 0 -21 -145 -101 -135 -198 -228 -267 -285 -333 -352 -367 -319 -317 -346 -315 -303 -290 -295
0 0 0 0 0 0 0 0 0 0 0 0 0 0 -131 -107 -124 -153 -191 -253 -276 -326 -344 -390 -396 -396 -395 -321 -263 -222 -315 -262
0 0 0 0 0 0 0 0 0 0 0 -105 -72 -98 -90 -122 -143 -161 -217 -263 -335 -398 -487 -556 -464 -448 -387 -332 -267 -200 -338 -285
0 0 0 0 0 0 0 0 0 0 0 -11 -125 -138 -125 -145 -173 -184 -254 -318 -374 -453 -512 -583 -517 -441 -369 -313 -241 -213 -328 -365
0 0 0 0 0 0 0 0 0 0 0 0 -219 -203 -194 -137 -148 -191 -270 -350 -386 -396 -393 -438 -463 -423 -342 -292 -239 -214 -244 -282
0 0 0 0 0 0 0 0 0 0 0 0 -110 -120 -171 -159 -159 -191 -247 -307 -350 -354 -373 -399 -402 -391 -349 -285 -255 -214 -305 -374
0 0 0 0 0 0 0 0 0 0 0 0 -66 -93 -137 -140 -170 -200 -201 -245 -276 -307 -327 -392 -404 -410 -369 -341 -368 -468 -530 -509
0 0 0 0 0 0 0 0 0 0 0 0 -97 -119 -135 -138 -176 -163 -178 -178 -210 -252 -297 -358 -394 -418 -462 -471 -499 -600 -530 -426
0 0 0 0 0 0 0 0 0 0 0 0 -29 -133 -126 -144 -170 -155 -164 -151 -176 -202 -207 -303 -400 -469 -383 -274 -309 -393 -233 -122
0 0 0 0 0 0 0 0 0 0 0 0 0 -99 -125 -158 -129 -146 -162 -143 -132 -155 -196 -237 -221 -165 -149 -161 -177 -149 -129 -137
0 0 0 0 0 0 0 0 0 0 0 0 -211 -174 -211 -228 -192 -152 -119 -104 -127 -148 -174 -177 -155 -155 -144 -155 -168 -161 -182 -244
0 0 0 0 0 0 0 0 0 0 0 0 -265 -111 -90 -275 -308 -216 -181 -184 -179 -176 -169 -157 -170 -149 -118 -129 -127 -127 -215 -347
0 0 0 0 0 0 0 0 0 0 0 0 -95 -101 -131 -367 -406 -269 -236 -213 -223 -181 -135 -150 -176 -162 -130 -139 -150 -290 -309 0
0 0 0 0 0 0 0 0 0 0 0 0 -351 -425 -416 -401 -336 -325 -282 -268 -202 -150 -148 -204 -210 -166 -174 -276 -155 0 0 0
0 0 0 0 -4 0 0 0 0 0 0 0 -452 -406 -423 -435 -392 -320 -218 -209 -184 -154 -197 -277 -348 -400 -43 -142 0 0 0 0
-191 -189 0 0 0 0 0 -387 0 -437 -425 -383 -347 -418 -350 -324 -286 -230 -165 -152 -189 -185 -176 -273 -460 -411 -310 0 0 0 0 0
-206 -236 0 -138 -244 -394 -391 -421 -450 -488 -405 -344 -300 -292 -261 -245 -204 -182 -184 -223 -227 -217 -229 -261 -212 -314 0 0 0 0 -428 -364
-106 0 -44 -69 0 -364 -284 -283 -301 -279 -314 -293 -219 -219 -192 -172 -177 -204 -213 -273 -295 -312 -340 -121 -461 -367 -133 0 0 0 0 0
-213 0 0 0 0 -117 -240 -258 -237 -216 -195 -232 -250 -231 -188 -173 -206 -267 -325 -466 -475 -131 -299 0 0 -318 0 -418 0 0 0 0
Wind_Speed
16 16 14 13 13 15 12 16 10 11 16 18 16 18 20 19 18 17 15 14 13 14 15 15 15 15 12 10 7 12 12 13
17 15 18 17 7 13 16 7 6 8 9 16 13 13 15 16 16 17 14 13 10 10 12 13 14 15 16 16 17 16 4 8
18 17 16 16 17 17 14 19 9 9 9 5 8 10 11 13 14 16 17 16 13 11 12 13 14 17 17 19 19 16 5 3
20 19 18 17 16 10 11 13 19 18 16 15 9 6 7 9 11 14 17 19 20 20 19 18 18 18 18 18 17 14 10 6
22 18 18 17 14 13 15 16 14 18 17 18 10 1 5 5 8 12 16 18 19 20 20 20 19 19 17 17 15 12 10 9
24 16 16 17 15 13 15 18 17 17 22 15 1 5 5 5 7 8 12 14 17 18 18 17 17 17 16 15 13 11 9 9
28 24 19 21 18 14 16 17 17 18 15 15 5 12 11 9 6 5 7 9 12 15 16 16 15 14 13 11 10 8 8 8
31 28 25 29 24 18 16 16 20 19 19 14 8 4 9 10 5 4 3 5 9 10 12 13 14 13 12 10 9 8 7 5
31 27 24 34 25 16 18 18 19 20 17 16 13 8 14 13 13 12 8 7 8 8 9 11 12 12 12 13 13 11 10 11
27 23 32 29 22 17 16 20 14 23 25 17 8 13 14 15 16 13 8 5 6 7 7 10 12 13 13 13 14 14 14 14
26 26 28 28 22 18 17 24 18 24 25 22 17 11 10 14 16 13 8 3 1 4 6 10 11 12 13 13 13 13 14 16
22 28 32 28 18 17 21 43 24 25 28 21 12 15 13 16 15 11 6 4 1 3 5 7 9 10 11 12 13 14 16 17
24 26 28 24 20 16 27 37 29 30 29 20 16 14 13 9 11 11 7 6 5 4 6 6 7 9 10 10 12 13 14 17
25 26 32 20 16 21 25 27 26 27 21 16 17 18 13 9 11 10 8 5 5 6 6 7 9 10 11 11 13 14 17 20
24 24 23 24 27 29 29 27 25 19 15 7 9 10 10 8 8 8 7 4 4 5 7 10 10 11 12 14 14 16 19 21
25 24 25 24 23 22 22 21 17 14 9 6 6 5 4 3 3 3 3 2 5 9 10 12 12 15 17 18 14 18 22 24
22 22 20 18 16 14 13 11 10 10 8 6 4 3 2 2 2 3 6 9 10 11 14 15 18 20 18 17 19 23 26 30
22 19 18 15 13 10 9 9 8 7 7 7 6 4 3 3 7 9 12 14 14 16 19 19 14 14 17 19 23 27 30 33
19 17 16 13 11 10 9 9 8 7 6 6 6 5 7 11 16 20 22 18 18 14 12 14 12 15 19 22 27 31 33 34
Wind_Direction
276 286 288 290 289 293 320 306 15 94 167 191 128 130 140 122 106 118 122 114 141 164 172 174 175 176 166 161 166 173 190 200
276 282 280 281 301 291 276 19 76 35 116 154 115 98 95 94 90 102 117 102 109 142 162 163 164 167 172 173 178 193 163 182
271 274 274 276 276 284 291 279 346 0 7 48 112 111 99 95 81 73 67 73 88 120 122 132 136 147 156 165 174 180 134 138
268 276 283 281 278 258 275 295 290 302 310 307 302 113 93 85 74 63 48 43 53 68 80 102 120 132 141 153 164 167 160 146
264 271 277 279 275 272 279 291 298 298 303 297 304 99 106 93 76 63 44 38 52 68 79 89 104 119 132 144 153 148 148 147
252 267 275 272 275 271 272 282 288 294 293 319 132 154 144 130 106 74 43 49 54 66 78 90 98 108 121 134 148 154 145 144
260 262 269 277 281 279 276 283 279 291 295 312 183 175 167 152 133 93 54 56 60 63 69 78 83 88 100 112 129 133 146 148
258 259 264 269 276 283 281 286 286 294 297 311 305 240 189 179 190 155 99 77 88 59 59 61 66 69 75 82 84 93 90 90
257 259 265 266 265 268 277 283 291 292 298 304 306 238 195 189 178 169 153 133 115 82 40 34 37 49 53 59 58 57 46 34
261 256 257 269 275 268 267 284 289 297 297 299 288 205 198 189 183 180 171 148 119 92 33 16 36 39 30 35 36 41 29 20
259 255 269 271 270 269 274 285 297 299 299 298 300 277 246 196 190 188 191 198 322 34 27 5 17 27 34 24 23 19 13 4
263 261 262 268 278 279 288 275 299 304 297 291 281 266 233 199 193 198 217 237 229 24 12 10 17 3 16 8 7 6 359 351
263 269 273 279 277 283 279 281 304 309 299 281 257 262 257 229 208 221 227 253 275 312 331 352 5 351 353 358 351 356 359 352
266 267 269 285 282 278 293 298 304 316 309 297 274 276 275 254 212 207 220 235 261 299 328 336 339 345 349 352 355 351 347 339
268 276 285 286 280 285 292 294 301 320 332 318 296 277 272 263 218 212 214 221 286 324 330 330 333 336 337 339 345 342 341 338
275 283 288 297 299 298 302 301 308 317 341 349 324 298 276 241 206 201 212 277 305 308 313 316 320 320 327 327 339 336 337 336
281 290 297 313 312 311 320 332 338 337 344 356 16 45 87 153 193 248 281 295 299 305 308 314 314 315 326 328 329 328 328 327
281 290 296 300 309 324 333 336 348 26 26 22 33 26 15 324 309 300 297 300 300 300 305 310 324 319 320 323 324 325 325 324
287 293 296 296 302 313 328 335 343 352 360 360 346 342 324 311 306 305 301 302 301 316 323 326 324 319 320 321 323 322 321 321